Weather History for Le Luc, France

Change the Weather History Date:

Saturday, May 5, 2012

  Actual Average (LFTH) Record (LFTH)
Temperature  
Mean Temperature 65 °F -  
Max Temperature 75 °F 70 °F 75 °F (2005)
Min Temperature 55 °F 55 °F 46 °F (2014)
Growing Degree Days 15 (Base 50)    
Moisture  
Dew Point 53 °F    
Average Humidity 69    
Maximum Humidity 94    
Minimum Humidity 36    
Precipitation  
Precipitation 0.00 in - - ()
Sea Level Pressure  
Sea Level Pressure 29.79 in    
Wind  
Wind Speed 5 mph ()    
Max Wind Speed 12 mph    
Max Gust Speed -    
Visibility 6.2 miles    
Events      
Averages and records for this station are not official NWS values.
T = Trace of Precipitation, MM = Missing Value Source: Averaged Metar Reports

Daily Weather History Graph

Daily Weather History Graph

Search for Another Location

Airport:

Trip Planner

Search our weather history database for the weather conditions in past years. The results will help you decide how hot, cold, wet, or windy it might be!

Date:

Astronomy

May. 05, 2012 Rise Set
Actual Time 6:21 AM CEST 8:41 PM CEST
Civil Twilight 5:49 AM CEST 9:13 PM CEST
Nautical Twilight 5:10 AM CEST 9:52 PM CEST
Astronomical Twilight 4:26 AM CEST 10:36 PM CEST
Moon 8:14 PM CEST (5/5) 5:33 AM CEST (5/5)
Length of Visible Light 15h 23m
Length of Day
14h 19m
Waxing Gibbous, 99% of the Moon is Illuminated
May 5
Waxing Gibbous
May 6
Full
May 12
Last Quarter
May 21
New
May 28
First Quarter

Hourly Weather History & Observations

Time (CEST) Temp. Dew Point Humidity Pressure Visibility Wind Dir Wind Speed Gust Speed Precip Events Conditions
12:00 AM 59.0 °F 53.6 °F 82% 29.80 in 6.2 mi ENE 4.6 mph - N/A   Scattered Clouds
12:30 AM 59.0 °F 53.6 °F 82% 29.80 in 6.2 mi ENE 5.8 mph - N/A   Mostly Cloudy
1:00 AM 59.0 °F 53.6 °F 82% 29.80 in 6.2 mi ENE 4.6 mph - N/A   Mostly Cloudy
1:30 AM 57.2 °F 53.6 °F 88% 29.80 in 6.2 mi East 6.9 mph - N/A   Unknown
2:30 AM 57.2 °F 53.6 °F 88% 29.80 in 6.2 mi ENE 6.9 mph - N/A   Unknown
3:30 AM 57.2 °F 53.6 °F 88% 29.77 in 6.2 mi East 4.6 mph - N/A   Unknown
4:00 AM 57.2 °F 53.6 °F 88% 29.77 in 6.2 mi East 5.8 mph - N/A   Unknown
4:30 AM 57.2 °F 53.6 °F 88% 29.77 in 6.2 mi NE 4.6 mph - N/A   Unknown
5:30 AM 57.2 °F 55.4 °F 94% 29.77 in 6.2 mi NE 5.8 mph - N/A   Overcast
6:30 AM 55.4 °F 53.6 °F 94% 29.77 in 6.2 mi Variable 2.3 mph - N/A   Unknown
7:30 AM 59.0 °F 55.4 °F 88% 29.77 in 5.0 mi Calm Calm - N/A   Unknown
8:30 AM 62.6 °F 57.2 °F 82% 29.80 in 6.2 mi Variable 2.3 mph - N/A   Unknown
9:00 AM 64.4 °F 55.4 °F 73% 29.80 in 6.2 mi Calm Calm - N/A   Unknown
9:30 AM 66.2 °F 53.6 °F 64% 29.80 in 6.2 mi Variable 2.3 mph - N/A   Unknown
10:30 AM 68.0 °F 53.6 °F 60% 29.80 in 6.2 mi Variable 3.5 mph - N/A   Unknown
11:30 AM 69.8 °F 51.8 °F 53% 29.80 in 6.2 mi Variable 1.2 mph - N/A   Unknown
12:30 PM 71.6 °F 53.6 °F 53% 29.80 in 6.2 mi East 6.9 mph - N/A   Unknown
1:30 PM 75.2 °F 46.4 °F 36% 29.77 in 6.2 mi SSW 6.9 mph - N/A   Unknown
2:00 PM 73.4 °F 51.8 °F 47% 29.77 in 6.2 mi SSW 8.1 mph - N/A   Unknown
2:30 PM 73.4 °F 48.2 °F 41% 29.77 in 6.2 mi SSW 9.2 mph - N/A   Unknown
3:00 PM 73.4 °F 50.0 °F 44% 29.77 in 6.2 mi SSW 9.2 mph - N/A   Unknown
3:30 PM 71.6 °F 50.0 °F 46% 29.77 in 6.2 mi SSW 8.1 mph - N/A   Unknown
4:00 PM 69.8 °F 51.8 °F 53% 29.77 in 6.2 mi SW 10.4 mph - N/A   Unknown
4:30 PM 69.8 °F 53.6 °F 56% 29.77 in 6.2 mi SW 8.1 mph - N/A   Unknown
5:00 PM 69.8 °F 51.8 °F 53% 29.77 in 6.2 mi SW 8.1 mph - N/A   Unknown
5:30 PM 68.0 °F 51.8 °F 56% 29.77 in 6.2 mi SW 11.5 mph - N/A   Unknown
6:00 PM 68.0 °F 51.8 °F 56% 29.77 in 6.2 mi SSW 9.2 mph - N/A   Unknown
6:30 PM 66.2 °F 51.8 °F 60% 29.77 in 6.2 mi South 6.9 mph - N/A   Unknown
7:00 PM 66.2 °F 51.8 °F 60% 29.77 in 6.2 mi South 6.9 mph - N/A   Unknown
7:30 PM 64.4 °F 51.8 °F 64% 29.77 in 6.2 mi SSW 4.6 mph - N/A   Unknown
8:00 PM 64.4 °F 51.8 °F 64% 29.80 in 6.2 mi Variable 2.3 mph - N/A   Unknown
8:30 PM 62.6 °F 51.8 °F 68% 29.80 in 6.2 mi Variable 3.5 mph - N/A   Unknown
9:00 PM 60.8 °F 51.8 °F 72% 29.80 in 6.2 mi Variable 2.3 mph - N/A   Unknown
9:30 PM 59.0 °F 51.8 °F 77% 29.80 in 6.2 mi Variable 1.2 mph - N/A   Unknown
10:00 PM 59.0 °F 51.8 °F 77% 29.83 in 6.2 mi Calm Calm - N/A   Unknown
10:30 PM 59.0 °F 51.8 °F 77% 29.83 in 6.2 mi Calm Calm - N/A   Unknown
11:00 PM 57.2 °F 51.8 °F 82% 29.83 in 6.2 mi Calm Calm - N/A   Unknown
11:30 PM 55.4 °F 51.8 °F 88% 29.83 in 6.2 mi Calm Calm - N/A   Unknown